Tracking 27124 objects as of 1-Apr-2023
HD Live streaming from Space Station
objects crossing your sky now

GONETS M 19

Track GONETS M 19 now!
10-day predictions


NORAD ID: 46488
Int'l Code: 2020-068C
Perigee: 1,488.8 km
Apogee: 1,513.5 km
Inclination: 82.5 °
Period: 115.9 minutes
Semi major axis: 7872 km
RCS: Unknown
Launch date: September 28, 2020
Source: Commonwealth of Independent States (former USSR) (CIS)
Launch site: PLESETSK MISSILE AND SPACE COMPLEX (PKMTR)
Your satellite tracking list
Your tracking list is empty




NASA's NSSDC Master Catalog

Two Line Element Set (TLE):
1 46488U 20068C   23090.65853954  .00000024  00000-0  10000-3 0  9995
2 46488  82.5028 357.2976 0015708  84.6455 275.6419 12.42978154113573
Source of the keplerian elements: AFSPC